Change the Weather History Date:

Sunday, February 9, 2014

  Actual Average Record
Temperature  
Mean Temperature 61 °F 60 °F  
Max Temperature 77 °F 71 °F 98 °F (1960)
Min Temperature 44 °F 49 °F 23 °F (1974)
Degree Days  
Heating Degree Days 4 7  
Month to date heating degree days 128 66  
Since 1 July heating degree days 911 745  
Cooling Degree Days 0 2  
Month to date cooling degree days 9 14  
Year to date cooling degree days 19 42  
Growing Degree Days 10 (Base 50)    
Moisture  
Dew Point 52 °F    
Average Humidity 90    
Maximum Humidity 100    
Minimum Humidity 48    
Precipitation  
Precipitation 0.00 in 0.03 in 0.75 in (1911)
Month to date precipitation 0.08 0.29  
Year to date precipitation 0.16 1.19  
Sea Level Pressure  
Sea Level Pressure 30.07 in    
Wind  
Wind Speed 7 mph (SSE)    
Max Wind Speed 14 mph    
Max Gust Speed 17 mph    
Visibility 6 miles    
Events Fog , Rain    
T = Trace of Precipitation, MM = Missing Value Source: NWS Daily Summary

Daily Weather History Graph

Daily Weather History Graph

Search for Another Location

Airport or City:

Trip Planner

Search our weather history database for the weather conditions in past years. The results will help you decide how hot, cold, wet, or windy it might be!

Date:

Astronomy

Feb. 09, 2014 Rise Set
Actual Time 7:19 AM CST 6:25 PM CST
Civil Twilight 6:55 AM CST 6:49 PM CST
Nautical Twilight 6:27 AM CST 7:16 PM CST
Astronomical Twilight 6:00 AM CST 7:44 PM CST
Moon 2:15 PM CST (2/9) 3:17 AM CST (2/9)
Length of Visible Light 11h 53m
Length of Day
11h 05m
Waxing Gibbous, 77% of the Moon is Illuminated
Feb 9
Waxing Gibbous
Feb 14
Full
Feb 22
Last Quarter
Mar 1
New
Mar 8
First Quarter

Hourly Weather History & Observations

Time (CST) Temp. Windchill Dew Point Humidity Pressure Visibility Wind Dir Wind Speed Gust Speed Precip Events Conditions
12:56 AM 45.9 °F 42.9 °F 43.9 °F 93% 30.12 in 10.0 mi East 5.8 mph - N/A   Clear
1:56 AM 45.0 °F 41.8 °F 43.9 °F 96% 30.11 in 10.0 mi ESE 5.8 mph - N/A   Clear
2:33 AM 46.4 °F 43.5 °F 44.6 °F 93% 30.12 in 8.0 mi ESE 5.8 mph - N/A   Scattered Clouds
2:39 AM 46.4 °F 42.9 °F 46.4 °F 100% 30.12 in 7.0 mi SE 6.9 mph - N/A   Mostly Cloudy
2:48 AM 48.2 °F - 48.2 °F 100% 30.11 in 1.8 mi SE 8.1 mph - 0.00 in Rain Light Rain
2:56 AM 48.9 °F - 48.9 °F 100% 30.09 in 0.8 mi SE 13.8 mph - 0.00 in Rain Light Rain
3:03 AM 48.2 °F - 48.2 °F 100% 30.11 in 1.0 mi SSE 10.4 mph - 0.00 in Rain Light Rain
3:23 AM 48.2 °F - 48.2 °F 100% 30.11 in 0.8 mi SSE 9.2 mph - 0.00 in Rain Light Rain
3:56 AM 50.0 °F - 50.0 °F 100% 30.08 in 0.8 mi SSE 6.9 mph - 0.00 in Rain Light Rain
4:09 AM 50.0 °F - 50.0 °F 100% 30.10 in 0.5 mi SSE 5.8 mph - 0.00 in Fog , Rain Light Rain
4:56 AM 50.9 °F - 50.9 °F 100% 30.08 in 0.5 mi SE 6.9 mph - 0.00 in Fog , Rain Light Rain
5:04 AM 51.8 °F - 51.8 °F 100% 30.10 in 0.8 mi SE 5.8 mph - 0.00 in Rain Light Rain
5:56 AM 52.0 °F - 52.0 °F 100% 30.07 in 0.8 mi SSE 8.1 mph - 0.00 in Rain Light Rain
6:06 AM 51.8 °F - 51.8 °F 100% 30.09 in 1.0 mi South 8.1 mph - 0.00 in Rain Light Rain
6:27 AM 51.8 °F - 51.8 °F 100% 30.10 in 0.8 mi South 5.8 mph - 0.00 in Rain Light Rain
6:56 AM 52.0 °F - 52.0 °F 100% 30.09 in 1.0 mi South 5.8 mph - 0.00 in Rain Light Rain
7:13 AM 51.8 °F - 51.8 °F 100% 30.12 in 0.8 mi Calm Calm - 0.00 in Rain Light Rain
7:49 AM 51.8 °F - 51.8 °F 100% 30.12 in 1.2 mi South 8.1 mph - 0.00 in   Overcast
7:56 AM 52.0 °F - 52.0 °F 100% 30.11 in 4.0 mi South 8.1 mph - 0.00 in   Overcast
8:16 AM 51.8 °F - 51.8 °F 100% 30.13 in 2.0 mi South 8.1 mph - N/A   Overcast
8:40 AM 51.8 °F - 51.8 °F 100% 30.13 in 1.8 mi South 4.6 mph - N/A   Overcast
8:56 AM 52.0 °F - 52.0 °F 100% 30.12 in 1.8 mi SSE 5.8 mph - N/A   Overcast
9:08 AM 51.8 °F - 51.8 °F 100% 30.14 in 2.5 mi South 6.9 mph - N/A   Overcast
9:30 AM 51.8 °F - 51.8 °F 100% 30.14 in 3.0 mi SSW 6.9 mph - N/A   Overcast
9:56 AM 52.0 °F - 52.0 °F 100% 30.14 in 4.0 mi South 4.6 mph - N/A   Overcast
10:56 AM 52.9 °F - 52.9 °F 100% 30.14 in 6.0 mi SE 5.8 mph - N/A   Overcast
11:49 AM 55.4 °F - 53.6 °F 94% 30.13 in 9.0 mi SSE 4.6 mph - N/A   Overcast
11:56 AM 55.9 °F - 54.0 °F 93% 30.11 in 10.0 mi South 6.9 mph - N/A   Overcast
12:14 PM 57.2 °F - 53.6 °F 88% 30.12 in 10.0 mi South 5.8 mph - N/A   Overcast
12:56 PM 59.0 °F - 52.9 °F 80% 30.07 in 10.0 mi South 6.9 mph - N/A   Overcast
1:16 PM 60.8 °F - 53.6 °F 77% 30.08 in 10.0 mi Variable 3.5 mph - N/A   Scattered Clouds
1:56 PM 64.9 °F - 52.9 °F 65% 30.03 in 10.0 mi Calm Calm - N/A   Scattered Clouds
2:56 PM 68.9 °F - 54.0 °F 59% 29.99 in 10.0 mi Calm Calm - N/A   Clear
3:56 PM 74.8 °F - 54.9 °F 50% 29.96 in 10.0 mi South 5.8 mph - N/A   Clear
4:56 PM 75.9 °F - 54.9 °F 48% 29.94 in 10.0 mi SSE 6.9 mph - N/A   Clear
5:56 PM 74.8 °F - 54.9 °F 50% 29.94 in 10.0 mi SSE 10.4 mph - N/A   Clear
6:56 PM 66.9 °F - 54.9 °F 65% 29.94 in 10.0 mi SSE 6.9 mph - N/A   Clear
7:56 PM 65.8 °F - 55.9 °F 70% 29.96 in 10.0 mi SSE 8.1 mph - N/A   Clear
8:56 PM 63.9 °F - 55.9 °F 75% 29.96 in 10.0 mi SE 9.2 mph - N/A   Clear
9:56 PM 63.0 °F - 59.0 °F 87% 29.96 in 10.0 mi SE 8.1 mph - N/A   Clear
10:56 PM 63.9 °F - 61.9 °F 93% 29.94 in 10.0 mi SE 12.7 mph - N/A   Clear
11:56 PM 63.9 °F - 63.0 °F 97% 29.93 in 10.0 mi SSE 11.5 mph - N/A   Clear